Flag for Croatia Weather past 2 weeks in Split, Croatia

Now
N/A

Passing clouds.


Feels Like: N/A
Forecast: 33 / 49 °F
Wind: N/A

Location: Split / Marjan

Current Time: Jan 26, 2015 at 10:27:53 AM

Latest Report: Jan 26, 2015 at 10:00 AM


Visibility: 6 mi

Pressure: N/A

Humidity: N/A

Dew point: N/A

Location of SplitLocation

Historic Weather in Split — Graph

°F

Split temperature yesterday

Maximum temperature yesterday: 47 °F (at 12:00 PM)
Minimum temperature yesterday: 42 °F (at 7:00 PM)
Average temperature yesterday: 44 °F

Past Weeks' High & Low Weather Summary

 TemperatureHumidityPressure
High56 °F (Jan 18, 1:00 AM)95% (Jan 11, 9:00 PM)30.45 "Hg (Jan 11, 9:00 PM)
Low38 °F (Jan 11, 9:00 PM)30% (Jan 12, 5:00 AM)29.57 "Hg (Jan 23, 6:00 AM)
Average49 °F68%30.00 "Hg
* Reported Jan 11 9:00 AM — Jan 26 9:00 AM, Split, Weather by CustomWeather, © 2014

Note: Actual official high and low records may vary slightly from our data, if they occured in-between our weather recording intervals... More about our weather records

Advertising

Split weather history for previous 24 hours

 ConditionsComfort  
Time TempWeatherWind HumidityBarometerVisibility
9:00 AM
Jan 26
42 °FPassing clouds.9 mph45%30.09 "Hg12 mi
8:00 AM41 °FPassing clouds.12 mph46%30.08 "Hg31 mi
7:00 AM41 °FPassing clouds.12 mph48%30.06 "Hg31 mi
6:00 AM41 °FPassing clouds.12 mph47%30.05 "Hg12 mi
5:00 AM42 °FPassing clouds.12 mph47%30.04 "Hg12 mi
4:00 AM42 °FPassing clouds.12 mph45%30.05 "Hg12 mi
1:00 AM42 °FPassing clouds.14 mph45%30.02 "Hg12 mi
10:00 PM
Jan 25
42 °FPassing clouds.12 mph44%30.01 "Hg12 mi
9:00 PM42 °FPassing clouds.12 mph47%30.00 "Hg12 mi
8:00 PM42 °FPassing clouds.15 mph47%29.98 "Hg12 mi
7:00 PM42 °FPassing clouds.14 mph47%29.98 "Hg12 mi
4:00 PM44 °FPartly sunny.15 mph44%29.92 "Hg31 mi
3:00 PM46 °FPartly sunny.13 mph43%29.90 "Hg31 mi
2:00 PM47 °FPartly sunny.12 mph41%29.88 "Hg31 mi
1:00 PM47 °FPartly sunny.13 mph42%29.87 "Hg31 mi
12:00 PM47 °FPartly sunny.10 mph42%29.87 "Hg31 mi
11:00 AM46 °FPartly sunny.14 mph45%29.86 "Hg31 mi
10:00 AM44 °FPartly sunny.13 mph47%29.86 "Hg31 mi
Weather by CustomWeather, © 2014

See weather overviewHow to use our weather pages